This is the latest recevied weather packets stored in our database for station/object KB1JLI. If no packets are shown the sender has not sent any weather packets the latest 10 day(s).
| Time | Temp. | Humidity | Pressure | Rain* | Wind** | Luminosity | Snow |
|---|---|---|---|---|---|---|---|
| 1777497491 | 8.33° C | 88% | 1014.5 hPa | 0 mm | - | 66 W/m² | - |
| 1777497187 | 8.33° C | 87% | 1014.3 hPa | 0 mm | - | 73 W/m² | - |
| 1777496884 | 8.33° C | 87% | 1014.4 hPa | 0 mm | - | 104 W/m² | - |
| 1777496581 | 8.33° C | 87% | 1014.5 hPa | 0 mm | - | 97 W/m² | - |
| 1777496276 | 8.33° C | 87% | 1014.5 hPa | 0 mm | - | 77 W/m² | - |
| 1777495973 | 8.33° C | 88% | 1014.5 hPa | 0 mm | - | 85 W/m² | - |
| 1777495668 | 8.33° C | 87% | 1014.4 hPa | 0 mm | - | 94 W/m² | - |
| 1777495364 | 8.33° C | 87% | 1014.5 hPa | 0 mm | - | 95 W/m² | - |
| 1777495062 | 8.89° C | 85% | 1014.4 hPa | 0 mm | - | 113 W/m² | - |
| 1777494759 | 8.89° C | 86% | 1014.6 hPa | 0 mm | - | 108 W/m² | - |
| 1777494456 | 8.89° C | 84% | 1015 hPa | 0 mm | - | 102 W/m² | - |
| 1777494152 | 8.89° C | 85% | 1015 hPa | 0 mm | - | 121 W/m² | - |
| 1777493849 | 8.33° C | 86% | 1015 hPa | 0 mm | - | 124 W/m² | - |
| 1777493548 | 8.33° C | 86% | 1015.1 hPa | 0 mm | - | 128 W/m² | - |
| 1777493245 | 8.33° C | 87% | 1014.8 hPa | 0 mm | - | 112 W/m² | - |
| 1777492941 | 8.33° C | 86% | 1015.1 hPa | 0 mm | - | 97 W/m² | - |
| 1777492638 | 8.89° C | 86% | 1015.2 hPa | 0 mm | - | 111 W/m² | - |
| 1777492333 | 8.89° C | 86% | 1015 hPa | 0 mm | - | 106 W/m² | - |
| 1777492031 | 8.89° C | 87% | 1015.2 hPa | 0 mm | - | 117 W/m² | - |
| 1777491727 | 8.89° C | 86% | 1015.4 hPa | 0 mm | - | 125 W/m² | - |
| 1777491425 | 9.44° C | 85% | 1015.6 hPa | 0 mm | - | 110 W/m² | - |
| 1777491122 | 8.89° C | 86% | 1015.5 hPa | 0 mm | - | 157 W/m² | - |
| 1777490817 | 8.89° C | 85% | 1015.9 hPa | 0 mm | - | 151 W/m² | - |
| 1777490514 | 8.89° C | 85% | 1015.8 hPa | 0 mm | - | 187 W/m² | - |
| 1777490210 | 8.89° C | 85% | 1016 hPa | 0 mm | - | 164 W/m² | - |
* Rain latest hour (hover to see other rain measurements)
** Current wind speed in m/s (hover to see current wind gust speed)